Orbital Elements at Epoch 2459200.5 (2020-Dec-17.0) TDB
Reference: JPL 20 (heliocentric ecliptic J2000)
Element | Value | Uncertainty (1-sigma) | Units |
e | .190380761459274 | 4.1737e-08 | |
a | 2.613309694619942 | 1.1858e-08 | au |
q | 2.115785805029295 | 1.1223e-07 | au |
i | 2.77511380421294 | 3.5569e-06 | deg |
node | 50.56047360183783 | 9.1533e-05 | deg |
peri | 89.82772181476739 | 9.2608e-05 | deg |
M | 63.70408280762776 | 1.0473e-05 | deg |
tp | 2458927.445390284947 (2020-Mar-18.94539028) | 4.5326e-05 | TDB |
period | 1543.066867382148 4.22 | 1.0502e-05 2.875e-08 | d yr |
n | .2333016200462842 | 1.5879e-09 | deg/d |
Q | 3.110833584210589 | 1.4115e-08 | au |
|
| | Orbit Determination Parameters
Additional Information
|